START_TIME,STEP,MOV.,H8,t_acc.,H43,t_acc.,M25,t_acc.,H9,t_acc.
1979-03-02 21:00:18.980 ,1,0,0.,12.0,0.,12.0,0.,12.0,0.,12.0
1979-03-02 21:00:30.980 ,1,0,0.,12.0,0.,12.0,0.,12.0,0.,12.0
1979-03-02 21:00:42.980 ,2,0,0.,12.0,0.,12.0,0.,12.0,0.,12.0
1979-03-02 21:00:54.980 ,2,0,0.,12.0,0.,12.0,0.,12.0,0.,12.0
1979-03-02 21:01:06.980 ,3,0,0.,12.0,0.,12.0,0.,12.0,0.,12.0
1979-03-02 21:01:18.980 ,3,0,1.,12.0,0.,12.0,0.,12.0,0.,12.0
1979-03-02 21:01:30.980 ,4,0,1.,12.0,0.,12.0,0.,12.0,0.,12.0
1979-03-02 21:01:42.980 ,4,0,3.,12.0,0.,12.0,0.,12.0,0.,12.0
1979-03-02 21:01:54.980 ,5,0,3.,12.0,0.,12.0,0.,12.0,0.,12.0
1979-03-02 21:02:06.980 ,5,0,7.,12.0,0.,12.0,0.,12.0,0.,12.0
1979-03-02 21:02:18.980 ,6,0,7.,12.0,0.,12.0,0.,12.0,0.,12.0
1979-03-02 21:02:30.980 ,6,0,8.,12.0,0.,12.0,0.,12.0,0.,12.0
1979-03-02 21:02:42.980 ,7,0,6.,12.0,0.,12.0,0.,12.0,0.,12.0
1979-03-02 21:02:54.980 ,7,0,0.,12.0,0.,12.0,0.,12.0,0.,12.0
1979-03-02 21:03:06.980 ,7,0,0.,12.0,0.,12.0,0.,12.0,0.,12.0
1979-03-02 21:03:18.980 ,7,0,0.,12.0,0.,12.0,0.,12.0,0.,12.0
1979-03-02 21:03:30.980 ,6,0,0.,12.0,0.,12.0,0.,12.0,0.,12.0
1979-03-02 21:03:42.980 ,6,0,8.,12.0,0.,12.0,0.,12.0,0.,12.0
1979-03-02 21:03:54.980 ,5,0,8.,12.0,0.,12.0,0.,12.0,0.,12.0
1979-03-02 21:04:06.980 ,5,0,12.,12.0,0.,12.0,0.,12.0,0.,12.0
1979-03-02 21:04:18.980 ,4,0,6.,12.0,0.,12.0,0.,12.0,0.,12.0
1979-03-02 21:04:30.980 ,4,0,1.,12.0,0.,12.0,0.,12.0,0.,12.0
1979-03-02 21:04:42.980 ,3,0,3.,12.0,0.,12.0,0.,12.0,0.,12.0
1979-03-02 21:04:54.980 ,3,0,1.,12.0,0.,12.0,0.,12.0,0.,12.0
1979-03-02 21:05:06.980 ,2,0,0.,12.0,0.,12.0,0.,12.0,0.,12.0
1979-03-02 21:05:18.980 ,2,0,0.,12.0,0.,12.0,0.,12.0,0.,12.0
1979-03-02 21:05:30.980 ,1,0,0.,12.0,0.,12.0,0.,12.0,0.,12.0
1979-03-02 21:05:42.980 ,1,0,0.,12.0,0.,12.0,0.,12.0,0.,12.0
1979-03-02 21:05:54.980 ,0,0,0.,12.0,0.,12.0,0.,12.0,0.,12.0
1979-03-02 21:06:06.980 ,0,0,0.,12.0,0.,12.0,0.,12.0,0.,12.0
1979-03-02 21:06:18.980 ,0,0,0.,12.0,0.,12.0,0.,12.0,0.,12.0
1979-03-02 21:06:30.980 ,0,0,0.,12.0,0.,12.0,0.,12.0,0.,12.0
1979-03-02 21:06:42.980 ,1,0,0.,12.0,0.,12.0,0.,12.0,0.,12.0
1979-03-02 21:06:54.980 ,1,0,0.,12.0,0.,12.0,0.,12.0,0.,12.0
1979-03-02 21:07:06.980 ,2,0,0.,12.0,0.,12.0,0.,12.0,0.,12.0
1979-03-02 21:07:18.980 ,2,0,0.,12.0,0.,12.0,0.,12.0,0.,12.0
1979-03-02 21:07:30.980 ,3,0,0.,12.0,0.,12.0,0.,12.0,0.,12.0
1979-03-02 21:07:42.980 ,3,0,0.,12.0,0.,12.0,0.,12.0,0.,12.0
1979-03-02 21:07:54.980 ,4,0,0.,12.0,0.,12.0,0.,12.0,0.,12.0
1979-03-02 21:08:06.980 ,4,0,5.,12.0,0.,12.0,0.,12.0,0.,12.0
1979-03-02 21:08:18.980 ,5,0,6.,12.0,0.,12.0,0.,12.0,0.,12.0
1979-03-02 21:08:30.980 ,5,0,9.,12.0,0.,12.0,0.,12.0,0.,12.0
1979-03-02 21:08:42.980 ,6,0,16.,12.0,0.,12.0,0.,12.0,0.,12.0
1979-03-02 21:08:54.980 ,6,0,20.,12.0,0.,12.0,0.,12.0,0.,12.0
1979-03-02 21:09:06.980 ,7,0,11.,12.0,0.,12.0,0.,12.0,0.,12.0
1979-03-02 21:09:18.980 ,7,0,0.,12.0,0.,12.0,0.,12.0,0.,12.0
1979-03-02 21:09:30.980 ,7,0,0.,12.0,0.,12.0,0.,12.0,0.,12.0
1979-03-02 21:09:42.980 ,7,0,0.,12.0,0.,12.0,0.,12.0,0.,12.0
1979-03-02 21:09:54.980 ,6,0,0.,12.0,0.,12.0,0.,12.0,0.,12.0
1979-03-02 21:10:06.980 ,6,0,9.,12.0,0.,12.0,0.,12.0,0.,12.0
1979-03-02 21:10:18.980 ,5,0,13.,12.0,0.,12.0,0.,12.0,0.,12.0
1979-03-02 21:10:30.980 ,5,0,9.,12.0,0.,12.0,0.,12.0,0.,12.0
1979-03-02 21:10:42.980 ,4,0,8.,12.0,0.,12.0,0.,12.0,0.,12.0
1979-03-02 21:10:54.980 ,4,0,5.,12.0,0.,12.0,0.,12.0,0.,12.0
1979-03-02 21:11:06.980 ,3,0,3.,12.0,0.,12.0,0.,12.0,0.,12.0
1979-03-02 21:11:18.980 ,3,0,0.,12.0,0.,12.0,0.,12.0,0.,12.0
1979-03-02 21:11:30.980 ,2,0,0.,12.0,0.,12.0,0.,12.0,0.,12.0
1979-03-02 21:11:42.980 ,2,0,0.,12.0,0.,12.0,0.,12.0,0.,12.0
1979-03-02 21:11:54.980 ,1,0,0.,12.0,0.,12.0,0.,12.0,0.,12.0
1979-03-02 21:12:06.980 ,1,0,0.,12.0,0.,12.0,0.,12.0,0.,12.0
1979-03-02 21:12:18.980 ,0,0,0.,12.0,0.,12.0,0.,12.0,0.,12.0
1979-03-02 21:12:30.980 ,0,0,0.,12.0,0.,12.0,0.,12.0,0.,12.0
1979-03-02 21:12:42.980 ,0,0,0.,12.0,0.,12.0,0.,12.0,0.,12.0
1979-03-02 21:12:54.980 ,0,0,0.,12.0,0.,12.0,0.,12.0,0.,12.0
1979-03-02 21:13:06.980 ,1,0,0.,12.0,0.,12.0,0.,12.0,0.,12.0
1979-03-02 21:13:18.980 ,1,0,0.,12.0,0.,12.0,0.,12.0,0.,12.0
1979-03-02 21:13:30.980 ,2,0,0.,12.0,0.,12.0,0.,12.0,0.,12.0
1979-03-02 21:13:42.980 ,2,0,0.,12.0,0.,12.0,0.,12.0,0.,12.0
1979-03-02 21:13:54.980 ,3,0,0.,12.0,0.,12.0,0.,12.0,0.,12.0
1979-03-02 21:14:06.980 ,3,0,0.,12.0,0.,12.0,0.,12.0,0.,12.0
1979-03-02 21:14:18.980 ,4,0,0.,12.0,0.,12.0,0.,12.0,0.,12.0
1979-03-02 21:14:30.980 ,4,0,2.,12.0,0.,12.0,0.,12.0,0.,12.0
1979-03-02 21:14:42.980 ,5,0,4.,12.0,0.,12.0,0.,12.0,0.,12.0
1979-03-02 21:14:54.980 ,5,0,20.,12.0,0.,12.0,0.,12.0,0.,12.0
1979-03-02 21:15:06.980 ,6,0,8.,12.0,0.,12.0,0.,12.0,0.,12.0
1979-03-02 21:15:18.980 ,6,0,11.,12.0,0.,12.0,0.,12.0,0.,12.0
1979-03-02 21:15:30.980 ,7,0,13.,12.0,0.,12.0,0.,12.0,0.,12.0
1979-03-02 21:15:42.980 ,7,0,0.,12.0,0.,12.0,0.,12.0,0.,12.0
1979-03-02 21:15:54.980 ,7,0,0.,12.0,0.,12.0,0.,12.0,0.,12.0
1979-03-02 21:16:06.980 ,7,0,0.,12.0,0.,12.0,0.,12.0,0.,12.0
1979-03-02 21:16:18.980 ,6,0,0.,12.0,0.,12.0,0.,12.0,0.,12.0
1979-03-02 21:16:30.980 ,6,0,15.,12.0,0.,12.0,0.,12.0,0.,12.0
1979-03-02 21:16:42.980 ,5,0,14.,12.0,0.,12.0,0.,12.0,0.,12.0
1979-03-02 21:16:54.980 ,5,0,9.,12.0,0.,12.0,0.,12.0,0.,12.0
1979-03-02 21:17:06.980 ,4,0,13.,12.0,0.,12.0,0.,12.0,0.,12.0
1979-03-02 21:17:18.980 ,4,0,3.,12.0,0.,12.0,0.,12.0,0.,12.0
1979-03-02 21:17:30.980 ,3,0,6.,12.0,0.,12.0,0.,12.0,0.,12.0
1979-03-02 21:17:42.980 ,3,0,0.,12.0,0.,12.0,0.,12.0,0.,12.0
1979-03-02 21:17:54.980 ,2,0,0.,12.0,0.,12.0,0.,12.0,0.,12.0
1979-03-02 21:18:06.980 ,2,0,0.,12.0,0.,12.0,0.,12.0,0.,12.0
1979-03-02 21:18:18.980 ,1,0,0.,12.0,0.,12.0,0.,12.0,0.,12.0
1979-03-02 21:18:30.980 ,1,0,0.,12.0,0.,12.0,0.,12.0,0.,12.0
1979-03-02 21:18:42.980 ,0,0,0.,12.0,0.,12.0,0.,12.0,0.,12.0
1979-03-02 21:18:54.980 ,0,0,0.,12.0,0.,12.0,0.,12.0,0.,12.0
1979-03-02 21:19:06.980 ,0,0,1.,12.0,0.,12.0,0.,12.0,0.,12.0
1979-03-02 21:19:18.980 ,0,0,0.,12.0,0.,12.0,0.,12.0,0.,12.0
1979-03-02 21:19:30.980 ,1,0,1.,12.0,0.,12.0,0.,12.0,0.,12.0
1979-03-02 21:19:42.980 ,1,0,0.,12.0,0.,12.0,0.,12.0,0.,12.0
1979-03-02 21:19:54.980 ,2,0,0.,12.0,0.,12.0,0.,12.0,0.,12.0
1979-03-02 21:20:06.980 ,2,0,0.,12.0,0.,12.0,0.,12.0,0.,12.0
1979-03-02 21:20:18.980 ,3,0,0.,12.0,0.,12.0,0.,12.0,0.,12.0
1979-03-02 21:20:30.980 ,3,0,1.,12.0,0.,12.0,0.,12.0,0.,12.0
1979-03-02 21:20:42.980 ,4,0,3.,12.0,0.,12.0,0.,12.0,0.,12.0
1979-03-02 21:20:54.980 ,4,0,4.,12.0,0.,12.0,0.,12.0,0.,12.0
1979-03-02 21:21:06.980 ,5,0,10.,12.0,0.,12.0,0.,12.0,0.,12.0
1979-03-02 21:21:18.980 ,5,0,10.,12.0,0.,12.0,0.,12.0,0.,12.0
1979-03-02 21:21:30.980 ,6,0,13.,12.0,0.,12.0,0.,12.0,0.,12.0
1979-03-02 21:21:42.980 ,6,0,7.,12.0,0.,12.0,0.,12.0,0.,12.0
1979-03-02 21:21:54.980 ,7,0,8.,12.0,0.,12.0,0.,12.0,0.,12.0
1979-03-02 21:22:06.980 ,7,0,0.,12.0,0.,12.0,0.,12.0,0.,12.0
1979-03-02 21:22:18.980 ,7,0,0.,12.0,0.,12.0,0.,12.0,0.,12.0
1979-03-02 21:22:30.980 ,7,0,0.,12.0,0.,12.0,0.,12.0,0.,12.0
1979-03-02 21:22:42.980 ,6,0,1.,12.0,0.,12.0,0.,12.0,0.,12.0
1979-03-02 21:22:54.980 ,6,0,18.,12.0,0.,12.0,0.,12.0,0.,12.0
1979-03-02 21:23:06.980 ,5,0,26.,12.0,0.,12.0,0.,12.0,0.,12.0
1979-03-02 21:23:18.980 ,5,0,19.,12.0,0.,12.0,0.,12.0,0.,12.0
1979-03-02 21:23:30.980 ,4,0,18.,12.0,0.,12.0,0.,12.0,0.,12.0
1979-03-02 21:23:42.980 ,4,0,10.,12.0,0.,12.0,0.,12.0,0.,12.0
1979-03-02 21:23:54.980 ,3,0,6.,12.0,0.,12.0,0.,12.0,0.,12.0
1979-03-02 21:24:06.980 ,3,0,2.,12.0,0.,12.0,0.,12.0,0.,12.0
1979-03-02 21:24:18.980 ,2,0,1.,12.0,0.,12.0,0.,12.0,0.,12.0
1979-03-02 21:24:30.980 ,2,0,0.,12.0,0.,12.0,0.,12.0,0.,12.0
1979-03-02 21:24:42.980 ,1,0,0.,12.0,0.,12.0,0.,12.0,0.,12.0
1979-03-02 21:24:54.980 ,1,0,1.,12.0,0.,12.0,0.,12.0,0.,12.0
1979-03-02 21:25:06.980 ,0,0,0.,12.0,0.,12.0,0.,12.0,0.,12.0
1979-03-02 21:25:18.980 ,0,0,3.,12.0,0.,12.0,0.,12.0,0.,12.0
1979-03-02 21:25:30.980 ,0,0,2.,12.0,0.,12.0,0.,12.0,0.,12.0
1979-03-02 21:25:42.980 ,0,0,1.,12.0,0.,12.0,0.,12.0,0.,12.0
1979-03-02 21:25:54.980 ,1,0,1.,12.0,0.,12.0,0.,12.0,0.,12.0
1979-03-02 21:26:06.980 ,1,0,0.,12.0,0.,12.0,0.,12.0,0.,12.0
1979-03-02 21:26:18.980 ,2,0,0.,12.0,0.,12.0,0.,12.0,0.,12.0
1979-03-02 21:26:30.980 ,2,0,0.,12.0,0.,12.0,0.,12.0,0.,12.0
1979-03-02 21:26:42.980 ,3,0,0.,12.0,0.,12.0,0.,12.0,0.,12.0
1979-03-02 21:26:54.980 ,3,0,1.,12.0,0.,12.0,0.,12.0,0.,12.0
1979-03-02 21:27:06.980 ,4,0,1.,12.0,0.,12.0,0.,12.0,0.,12.0
1979-03-02 21:27:18.980 ,4,0,7.,12.0,0.,12.0,0.,12.0,0.,12.0
1979-03-02 21:27:30.980 ,5,0,7.,12.0,0.,12.0,0.,12.0,0.,12.0
1979-03-02 21:27:42.980 ,5,0,23.,12.0,0.,12.0,0.,12.0,0.,12.0
1979-03-02 21:27:54.980 ,6,0,29.,12.0,0.,12.0,0.,12.0,0.,12.0
1979-03-02 21:28:06.980 ,6,0,24.,12.0,0.,12.0,0.,12.0,0.,12.0
1979-03-02 21:28:18.980 ,7,0,19.,12.0,0.,12.0,0.,12.0,0.,12.0
1979-03-02 21:28:30.980 ,7,0,0.,12.0,0.,12.0,0.,12.0,0.,12.0
1979-03-02 21:28:42.980 ,7,0,0.,12.0,0.,12.0,0.,12.0,0.,12.0
1979-03-02 21:28:54.980 ,7,0,0.,12.0,0.,12.0,0.,12.0,0.,12.0
1979-03-02 21:29:06.980 ,6,0,3.,12.0,0.,12.0,0.,12.0,0.,12.0
1979-03-02 21:29:18.980 ,6,0,27.,12.0,0.,12.0,0.,12.0,0.,12.0
1979-03-02 21:29:30.980 ,5,0,20.,12.0,0.,12.0,0.,12.0,0.,12.0
1979-03-02 21:29:42.980 ,5,0,25.,12.0,0.,12.0,0.,12.0,0.,12.0
1979-03-02 21:29:54.980 ,4,0,20.,12.0,0.,12.0,0.,12.0,0.,12.0
1979-03-02 21:30:06.980 ,4,0,6.,12.0,0.,12.0,0.,12.0,0.,12.0
1979-03-02 21:30:18.980 ,3,0,13.,12.0,0.,12.0,0.,12.0,0.,12.0
1979-03-02 21:30:30.980 ,3,0,2.,12.0,0.,12.0,0.,12.0,0.,12.0
1979-03-02 21:30:42.980 ,2,0,2.,12.0,0.,12.0,0.,12.0,0.,12.0
1979-03-02 21:30:54.980 ,2,0,0.,12.0,0.,12.0,0.,12.0,0.,12.0
1979-03-02 21:31:06.980 ,1,0,0.,12.0,0.,12.0,0.,12.0,0.,12.0
1979-03-02 21:31:18.980 ,1,0,1.,12.0,0.,12.0,0.,12.0,0.,12.0
1979-03-02 21:31:30.980 ,0,0,0.,12.0,0.,12.0,0.,12.0,0.,12.0
1979-03-02 21:31:42.980 ,0,0,3.,12.0,0.,12.0,0.,12.0,0.,12.0
1979-03-02 21:31:54.980 ,0,0,3.,12.0,0.,12.0,0.,12.0,0.,12.0
1979-03-02 21:32:06.980 ,0,0,1.,12.0,0.,12.0,0.,12.0,0.,12.0
1979-03-02 21:32:18.980 ,1,0,2.,12.0,0.,12.0,0.,12.0,0.,12.0
1979-03-02 21:32:30.980 ,1,0,0.,12.0,0.,12.0,0.,12.0,0.,12.0
1979-03-02 21:32:42.980 ,2,0,0.,12.0,0.,12.0,0.,12.0,0.,12.0
1979-03-02 21:32:54.980 ,2,0,0.,12.0,0.,12.0,0.,12.0,0.,12.0
1979-03-02 21:33:06.980 ,3,0,0.,12.0,0.,12.0,0.,12.0,0.,12.0
1979-03-02 21:33:18.980 ,3,0,3.,12.0,0.,12.0,0.,12.0,0.,12.0
1979-03-02 21:33:30.980 ,4,0,1.,12.0,0.,12.0,0.,12.0,0.,12.0
1979-03-02 21:33:42.980 ,4,0,10.,12.0,0.,12.0,0.,12.0,0.,12.0
1979-03-02 21:33:54.980 ,5,0,18.,12.0,0.,12.0,0.,12.0,0.,12.0
1979-03-02 21:34:06.980 ,5,0,19.,12.0,0.,12.0,0.,12.0,0.,12.0
1979-03-02 21:34:18.980 ,6,0,27.,12.0,0.,12.0,0.,12.0,0.,12.0
1979-03-02 21:34:30.980 ,6,0,31.,12.0,0.,12.0,0.,12.0,0.,12.0
1979-03-02 21:34:42.980 ,7,0,19.,12.0,0.,12.0,0.,12.0,0.,12.0
1979-03-02 21:34:54.980 ,7,0,0.,12.0,0.,12.0,0.,12.0,0.,12.0
1979-03-02 21:35:06.980 ,7,0,0.,12.0,0.,12.0,0.,12.0,0.,12.0
1979-03-02 21:35:18.980 ,7,0,0.,12.0,0.,12.0,0.,12.0,0.,12.0
1979-03-02 21:35:30.980 ,6,0,0.,12.0,0.,12.0,0.,12.0,0.,12.0
1979-03-02 21:35:42.980 ,6,0,27.,12.0,0.,12.0,0.,12.0,0.,12.0
1979-03-02 21:35:54.980 ,5,0,26.,12.0,0.,12.0,0.,12.0,0.,12.0
1979-03-02 21:36:06.980 ,5,0,31.,12.0,0.,12.0,0.,12.0,0.,12.0
1979-03-02 21:36:18.980 ,4,0,15.,12.0,0.,12.0,0.,12.0,0.,12.0
1979-03-02 21:36:30.980 ,4,0,13.,12.0,0.,12.0,0.,12.0,0.,12.0
1979-03-02 21:36:42.980 ,3,0,9.,12.0,0.,12.0,0.,12.0,0.,12.0
1979-03-02 21:36:54.980 ,3,0,3.,12.0,0.,12.0,0.,12.0,0.,12.0
1979-03-02 21:37:06.980 ,2,0,2.,12.0,0.,12.0,0.,12.0,0.,12.0
1979-03-02 21:37:18.980 ,2,0,0.,12.0,0.,12.0,0.,12.0,0.,12.0
1979-03-02 21:37:30.980 ,1,0,0.,12.0,0.,12.0,0.,12.0,0.,12.0
1979-03-02 21:37:42.980 ,1,0,0.,12.0,0.,12.0,0.,12.0,0.,12.0
1979-03-02 21:37:54.980 ,0,0,0.,12.0,0.,12.0,0.,12.0,0.,12.0
1979-03-02 21:38:06.980 ,0,0,1.,12.0,0.,12.0,0.,12.0,0.,12.0
1979-03-02 21:38:18.980 ,0,0,2.,12.0,0.,12.0,0.,12.0,0.,12.0
1979-03-02 21:38:30.980 ,0,0,0.,12.0,0.,12.0,0.,12.0,0.,12.0
1979-03-02 21:38:42.980 ,1,0,2.,12.0,0.,12.0,0.,12.0,0.,12.0
1979-03-02 21:38:54.980 ,1,0,0.,12.0,0.,12.0,0.,12.0,0.,12.0
1979-03-02 21:39:06.980 ,2,0,0.,12.0,0.,12.0,0.,12.0,0.,12.0
1979-03-02 21:39:18.980 ,2,0,0.,12.0,0.,12.0,0.,12.0,0.,12.0
1979-03-02 21:39:30.980 ,3,0,0.,12.0,0.,12.0,0.,12.0,0.,12.0
1979-03-02 21:39:42.980 ,3,0,4.,12.0,0.,12.0,0.,12.0,0.,12.0
1979-03-02 21:39:54.980 ,4,0,11.,12.0,0.,12.0,0.,12.0,0.,12.0
1979-03-02 21:40:06.980 ,4,0,14.,12.0,0.,12.0,0.,12.0,0.,12.0
1979-03-02 21:40:18.980 ,5,0,22.,12.0,0.,12.0,0.,12.0,0.,12.0
1979-03-02 21:40:30.980 ,5,0,29.,12.0,0.,12.0,0.,12.0,0.,12.0
1979-03-02 21:40:42.980 ,6,0,29.,12.0,0.,12.0,0.,12.0,0.,12.0
1979-03-02 21:40:54.980 ,6,0,31.,12.0,0.,12.0,0.,12.0,0.,12.0
1979-03-02 21:41:06.980 ,7,0,,0,,0,,0,,0
1979-03-02 21:41:18.980 ,7,0,0.,12.0,0.,12.0,0.,12.0,0.,12.0
1979-03-02 21:41:30.980 ,7,0,0.,12.0,0.,12.0,0.,12.0,0.,12.0
1979-03-02 21:41:42.980 ,7,0,0.,12.0,0.,12.0,0.,12.0,0.,12.0
1979-03-02 21:41:54.980 ,6,0,1.,12.0,0.,12.0,0.,12.0,0.,12.0
1979-03-02 21:42:06.980 ,6,0,27.,12.0,0.,12.0,0.,12.0,0.,12.0
1979-03-02 21:42:18.980 ,5,0,36.,12.0,0.,12.0,0.,12.0,0.,12.0
1979-03-02 21:42:30.980 ,5,0,38.,12.0,0.,12.0,0.,12.0,0.,12.0
1979-03-02 21:42:42.980 ,4,0,35.,12.0,0.,12.0,0.,12.0,0.,12.0
1979-03-02 21:42:54.980 ,4,0,26.,12.0,0.,12.0,0.,12.0,0.,12.0
1979-03-02 21:43:06.980 ,3,0,13.,12.0,0.,12.0,0.,12.0,0.,12.0
1979-03-02 21:43:18.980 ,3,0,7.,12.0,0.,12.0,0.,12.0,0.,12.0
1979-03-02 21:43:30.980 ,2,0,5.,12.0,0.,12.0,0.,12.0,0.,12.0
1979-03-02 21:43:42.980 ,2,0,1.,12.0,0.,12.0,0.,12.0,0.,12.0
1979-03-02 21:43:54.980 ,1,0,0.,12.0,0.,12.0,0.,12.0,0.,12.0
1979-03-02 21:44:06.980 ,1,0,0.,12.0,0.,12.0,0.,12.0,0.,12.0
1979-03-02 21:44:18.980 ,0,0,0.,12.0,0.,12.0,0.,12.0,0.,12.0
1979-03-02 21:44:30.980 ,0,0,3.,12.0,0.,12.0,0.,12.0,0.,12.0
1979-03-02 21:44:42.980 ,0,0,3.,12.0,0.,12.0,0.,12.0,0.,12.0
1979-03-02 21:44:54.980 ,0,0,2.,12.0,0.,12.0,0.,12.0,0.,12.0
1979-03-02 21:45:06.980 ,1,0,0.,12.0,0.,12.0,0.,12.0,0.,12.0
1979-03-02 21:45:18.980 ,1,0,0.,12.0,0.,12.0,0.,12.0,0.,12.0
1979-03-02 21:45:30.980 ,2,0,0.,12.0,0.,12.0,0.,12.0,0.,12.0
1979-03-02 21:45:42.980 ,2,0,0.,12.0,0.,12.0,0.,12.0,0.,12.0
1979-03-02 21:45:54.980 ,3,0,0.,12.0,0.,12.0,0.,12.0,0.,12.0
1979-03-02 21:46:06.980 ,3,0,9.,12.0,0.,12.0,0.,12.0,0.,12.0
1979-03-02 21:46:18.980 ,4,0,6.,12.0,0.,12.0,0.,12.0,0.,12.0
1979-03-02 21:46:30.980 ,4,0,16.,12.0,0.,12.0,0.,12.0,0.,12.0
1979-03-02 21:46:42.980 ,5,0,22.,12.0,0.,12.0,0.,12.0,0.,12.0
1979-03-02 21:46:54.980 ,5,0,31.,12.0,0.,12.0,0.,12.0,0.,12.0
1979-03-02 21:47:06.980 ,6,0,31.,12.0,0.,12.0,0.,12.0,0.,12.0
1979-03-02 21:47:18.980 ,6,0,29.,12.0,0.,12.0,0.,12.0,0.,12.0
1979-03-02 21:47:30.980 ,7,0,26.,12.0,0.,12.0,0.,12.0,0.,12.0
1979-03-02 21:47:42.980 ,7,0,0.,12.0,0.,12.0,0.,12.0,0.,12.0
1979-03-02 21:47:54.980 ,7,0,0.,12.0,0.,12.0,0.,12.0,0.,12.0
1979-03-02 21:48:06.980 ,7,0,0.,12.0,0.,12.0,0.,12.0,0.,12.0
1979-03-02 21:48:18.980 ,6,0,1.,12.0,0.,12.0,0.,12.0,0.,12.0
1979-03-02 21:48:30.980 ,6,0,25.,12.0,0.,12.0,0.,12.0,0.,12.0
1979-03-02 21:48:42.980 ,5,0,28.,12.0,0.,12.0,0.,12.0,0.,12.0
1979-03-02 21:48:54.980 ,5,0,36.,12.0,0.,12.0,0.,12.0,0.,12.0
1979-03-02 21:49:06.980 ,4,0,24.,12.0,0.,12.0,0.,12.0,0.,12.0
1979-03-02 21:49:18.980 ,4,0,19.,12.0,0.,12.0,0.,12.0,0.,12.0
1979-03-02 21:49:30.980 ,3,0,12.,12.0,0.,12.0,0.,12.0,0.,12.0
1979-03-02 21:49:42.980 ,3,0,6.,12.0,0.,12.0,0.,12.0,0.,12.0
1979-03-02 21:49:54.980 ,2,0,2.,12.0,0.,12.0,0.,12.0,0.,12.0
1979-03-02 21:50:06.980 ,2,0,0.,12.0,0.,12.0,0.,12.0,0.,12.0
1979-03-02 21:50:18.980 ,1,0,0.,12.0,0.,12.0,0.,12.0,0.,12.0
1979-03-02 21:50:30.980 ,1,0,0.,12.0,0.,12.0,0.,12.0,0.,12.0
1979-03-02 21:50:42.980 ,0,0,0.,12.0,0.,12.0,0.,12.0,0.,12.0
1979-03-02 21:50:54.980 ,0,0,5.,12.0,0.,12.0,0.,12.0,0.,12.0
1979-03-02 21:51:06.980 ,0,0,3.,12.0,0.,12.0,0.,12.0,0.,12.0
1979-03-02 21:51:18.980 ,0,0,2.,12.0,0.,12.0,0.,12.0,0.,12.0
1979-03-02 21:51:30.980 ,1,0,2.,12.0,0.,12.0,0.,12.0,0.,12.0
1979-03-02 21:51:42.980 ,1,0,1.,12.0,0.,12.0,0.,12.0,0.,12.0
1979-03-02 21:51:54.980 ,2,0,0.,12.0,0.,12.0,0.,12.0,0.,12.0
1979-03-02 21:52:06.980 ,2,0,0.,12.0,0.,12.0,0.,12.0,0.,12.0
1979-03-02 21:52:18.980 ,3,0,1.,12.0,0.,12.0,0.,12.0,0.,12.0
1979-03-02 21:52:30.980 ,3,0,9.,12.0,0.,12.0,0.,12.0,0.,12.0
1979-03-02 21:52:42.980 ,4,0,16.,12.0,0.,12.0,0.,12.0,0.,12.0
1979-03-02 21:52:54.980 ,4,0,23.,12.0,0.,12.0,0.,12.0,0.,12.0
1979-03-02 21:53:06.980 ,5,0,27.,12.0,0.,12.0,0.,12.0,0.,12.0
1979-03-02 21:53:18.980 ,5,0,34.,12.0,0.,12.0,0.,12.0,0.,12.0
1979-03-02 21:53:30.980 ,6,0,35.,12.0,0.,12.0,0.,12.0,0.,12.0
1979-03-02 21:53:42.980 ,6,0,19.,12.0,0.,12.0,0.,12.0,0.,12.0
1979-03-02 21:53:54.980 ,7,0,21.,12.0,0.,12.0,0.,12.0,0.,12.0
1979-03-02 21:54:06.980 ,7,0,0.,12.0,0.,12.0,0.,12.0,0.,12.0
1979-03-02 21:54:18.980 ,7,0,0.,12.0,0.,12.0,0.,12.0,0.,12.0
1979-03-02 21:54:30.980 ,7,0,0.,12.0,0.,12.0,0.,12.0,0.,12.0
1979-03-02 21:54:42.980 ,6,0,0.,12.0,0.,12.0,0.,12.0,0.,12.0
1979-03-02 21:54:54.980 ,6,0,33.,12.0,0.,12.0,0.,12.0,0.,12.0
1979-03-02 21:55:06.980 ,5,0,20.,12.0,0.,12.0,0.,12.0,0.,12.0
1979-03-02 21:55:18.980 ,5,0,24.,12.0,0.,12.0,0.,12.0,0.,12.0
1979-03-02 21:55:30.980 ,4,0,31.,12.0,0.,12.0,0.,12.0,0.,12.0
1979-03-02 21:55:42.980 ,4,0,25.,12.0,0.,12.0,0.,12.0,0.,12.0
1979-03-02 21:55:54.980 ,3,0,17.,12.0,0.,12.0,0.,12.0,0.,12.0
1979-03-02 21:56:06.980 ,3,0,16.,12.0,0.,12.0,0.,12.0,0.,12.0
1979-03-02 21:56:18.980 ,2,0,16.,12.0,0.,12.0,0.,12.0,0.,12.0
1979-03-02 21:56:30.980 ,2,0,0.,12.0,0.,12.0,0.,12.0,0.,12.0
1979-03-02 21:56:42.980 ,1,0,0.,12.0,0.,12.0,0.,12.0,0.,12.0
1979-03-02 21:56:54.980 ,1,0,0.,12.0,0.,12.0,0.,12.0,0.,12.0
1979-03-02 21:57:06.980 ,0,0,0.,12.0,0.,12.0,0.,12.0,0.,12.0
1979-03-02 21:57:18.980 ,0,0,5.,12.0,0.,12.0,0.,12.0,0.,12.0
1979-03-02 21:57:30.980 ,0,0,4.,12.0,0.,12.0,0.,12.0,0.,12.0
1979-03-02 21:57:42.980 ,0,0,2.,12.0,0.,12.0,0.,12.0,0.,12.0
1979-03-02 21:57:54.980 ,1,0,6.,12.0,0.,12.0,0.,12.0,0.,12.0
1979-03-02 21:58:06.980 ,1,0,0.,12.0,0.,12.0,0.,12.0,0.,12.0
1979-03-02 21:58:18.980 ,2,0,0.,12.0,0.,12.0,0.,12.0,0.,12.0
1979-03-02 21:58:30.980 ,2,0,0.,12.0,0.,12.0,0.,12.0,0.,12.0
1979-03-02 21:58:42.980 ,3,0,2.,12.0,0.,12.0,0.,12.0,0.,12.0
1979-03-02 21:58:54.980 ,3,0,18.,12.0,0.,12.0,0.,12.0,0.,12.0
1979-03-02 21:59:06.980 ,4,0,17.,12.0,0.,12.0,0.,12.0,0.,12.0
1979-03-02 21:59:18.980 ,4,0,26.,12.0,0.,12.0,0.,12.0,0.,12.0
1979-03-02 21:59:30.980 ,5,0,14.,12.0,0.,12.0,0.,12.0,0.,12.0
1979-03-02 21:59:42.980 ,5,0,36.,12.0,0.,12.0,0.,12.0,0.,12.0
1979-03-02 21:59:54.980 ,6,0,30.,12.0,0.,12.0,0.,12.0,0.,12.0
1979-03-02 22:00:06.980 ,6,0,28.,12.0,0.,12.0,0.,12.0,0.,12.0
1979-03-02 22:00:18.980 ,7,0,23.,12.0,0.,12.0,0.,12.0,0.,12.0
1979-03-02 22:00:30.980 ,7,0,0.,12.0,0.,12.0,0.,12.0,0.,12.0
1979-03-02 22:00:42.980 ,7,0,0.,12.0,0.,12.0,0.,12.0,0.,12.0
1979-03-02 22:00:54.980 ,7,0,0.,12.0,0.,12.0,0.,12.0,0.,12.0
1979-03-02 22:01:06.980 ,6,0,0.,12.0,0.,12.0,0.,12.0,0.,12.0
1979-03-02 22:01:18.980 ,6,0,29.,12.0,0.,12.0,0.,12.0,0.,12.0
1979-03-02 22:01:30.980 ,5,0,29.,12.0,0.,12.0,0.,12.0,0.,12.0
1979-03-02 22:01:42.980 ,5,0,33.,12.0,0.,12.0,0.,12.0,0.,12.0
1979-03-02 22:01:54.980 ,4,0,28.,12.0,0.,12.0,0.,12.0,0.,12.0
1979-03-02 22:02:06.980 ,4,0,19.,12.0,0.,12.0,0.,12.0,0.,12.0
1979-03-02 22:02:18.980 ,3,0,17.,12.0,0.,12.0,0.,12.0,0.,12.0
1979-03-02 22:02:30.980 ,3,0,11.,12.0,0.,12.0,0.,12.0,0.,12.0
1979-03-02 22:02:42.980 ,2,0,9.,12.0,0.,12.0,0.,12.0,0.,12.0
1979-03-02 22:02:54.980 ,2,0,1.,12.0,0.,12.0,0.,12.0,0.,12.0
1979-03-02 22:03:06.980 ,1,0,0.,12.0,0.,12.0,0.,12.0,0.,12.0
1979-03-02 22:03:18.980 ,1,0,0.,12.0,0.,12.0,0.,12.0,0.,12.0
1979-03-02 22:03:30.980 ,0,0,0.,12.0,0.,12.0,0.,12.0,0.,12.0
1979-03-02 22:03:42.980 ,0,0,5.,12.0,0.,12.0,0.,12.0,0.,12.0
1979-03-02 22:03:54.980 ,0,0,7.,12.0,0.,12.0,0.,12.0,0.,12.0
1979-03-02 22:04:06.980 ,0,0,13.,12.0,0.,12.0,0.,12.0,0.,12.0
1979-03-02 22:04:18.980 ,1,0,5.,12.0,0.,12.0,0.,12.0,0.,12.0
1979-03-02 22:04:30.980 ,1,0,1.,12.0,0.,12.0,0.,12.0,0.,12.0
1979-03-02 22:04:42.980 ,2,0,0.,12.0,0.,12.0,0.,12.0,0.,12.0
1979-03-02 22:04:54.980 ,2,0,0.,12.0,0.,12.0,0.,12.0,0.,12.0
1979-03-02 22:05:06.980 ,3,0,2.,12.0,0.,12.0,0.,12.0,0.,12.0
1979-03-02 22:05:18.980 ,3,0,8.,12.0,0.,12.0,0.,12.0,0.,12.0
1979-03-02 22:05:30.980 ,4,0,8.,12.0,0.,12.0,0.,12.0,0.,12.0
1979-03-02 22:05:42.980 ,4,0,22.,12.0,0.,12.0,0.,12.0,0.,12.0
1979-03-02 22:05:54.980 ,5,0,20.,12.0,0.,12.0,0.,12.0,0.,12.0
1979-03-02 22:06:06.980 ,5,0,34.,12.0,0.,12.0,0.,12.0,0.,12.0
1979-03-02 22:06:18.980 ,6,0,35.,12.0,0.,12.0,0.,12.0,0.,12.0
1979-03-02 22:06:30.980 ,6,0,37.,12.0,0.,12.0,0.,12.0,0.,12.0
1979-03-02 22:06:42.980 ,7,0,24.,12.0,0.,12.0,0.,12.0,0.,12.0
1979-03-02 22:06:54.980 ,7,0,0.,12.0,0.,12.0,0.,12.0,0.,12.0
1979-03-02 22:07:06.980 ,7,0,0.,12.0,0.,12.0,0.,12.0,0.,12.0
1979-03-02 22:07:18.980 ,7,0,0.,12.0,0.,12.0,0.,12.0,0.,12.0
1979-03-02 22:07:30.980 ,6,0,7.,12.0,0.,12.0,0.,12.0,0.,12.0
1979-03-02 22:07:42.980 ,6,0,40.,12.0,0.,12.0,0.,12.0,0.,12.0
1979-03-02 22:07:54.980 ,5,0,33.,12.0,0.,12.0,0.,12.0,0.,12.0
1979-03-02 22:08:06.980 ,5,0,31.,12.0,0.,12.0,0.,12.0,0.,12.0
1979-03-02 22:08:18.980 ,4,0,28.,12.0,0.,12.0,0.,12.0,0.,12.0
1979-03-02 22:08:30.980 ,4,0,20.,12.0,0.,12.0,0.,12.0,0.,12.0
1979-03-02 22:08:42.980 ,3,0,16.,12.0,0.,12.0,0.,12.0,0.,12.0
1979-03-02 22:08:54.980 ,3,0,12.,12.0,0.,12.0,0.,12.0,0.,12.0
1979-03-02 22:09:06.980 ,2,0,3.,12.0,0.,12.0,0.,12.0,0.,12.0
1979-03-02 22:09:18.980 ,2,0,1.,12.0,0.,12.0,0.,12.0,0.,12.0
1979-03-02 22:09:30.980 ,1,0,1.,12.0,0.,12.0,0.,12.0,0.,12.0
1979-03-02 22:09:42.980 ,1,0,0.,12.0,0.,12.0,0.,12.0,0.,12.0
1979-03-02 22:09:54.980 ,0,0,0.,12.0,0.,12.0,0.,12.0,0.,12.0
1979-03-02 22:10:06.980 ,0,0,3.,12.0,0.,12.0,0.,12.0,0.,12.0
1979-03-02 22:10:18.980 ,0,0,3.,12.0,0.,12.0,0.,12.0,0.,12.0
1979-03-02 22:10:30.980 ,0,0,5.,12.0,0.,12.0,0.,12.0,0.,12.0
1979-03-02 22:10:42.980 ,1,0,3.,12.0,0.,12.0,0.,12.0,0.,12.0
1979-03-02 22:10:54.980 ,1,0,0.,12.0,0.,12.0,0.,12.0,0.,12.0
1979-03-02 22:11:06.980 ,2,0,1.,12.0,0.,12.0,0.,12.0,0.,12.0
1979-03-02 22:11:18.980 ,2,0,0.,12.0,0.,12.0,0.,12.0,0.,12.0
1979-03-02 22:11:30.980 ,3,0,2.,12.0,0.,12.0,0.,12.0,0.,12.0
1979-03-02 22:11:42.980 ,3,0,2.,12.0,0.,12.0,0.,12.0,0.,12.0
1979-03-02 22:11:54.980 ,4,0,6.,12.0,0.,12.0,0.,12.0,0.,12.0
1979-03-02 22:12:06.980 ,4,0,12.,12.0,0.,12.0,0.,12.0,0.,12.0
1979-03-02 22:12:18.980 ,5,0,13.,12.0,0.,12.0,0.,12.0,0.,12.0
1979-03-02 22:12:30.980 ,5,0,20.,12.0,0.,12.0,0.,12.0,0.,12.0
1979-03-02 22:12:42.980 ,6,0,27.,12.0,0.,12.0,0.,12.0,0.,12.0
1979-03-02 22:12:54.980 ,6,0,20.,12.0,0.,12.0,0.,12.0,0.,12.0
1979-03-02 22:13:06.980 ,7,0,21.,12.0,0.,12.0,0.,12.0,0.,12.0
1979-03-02 22:13:18.980 ,7,0,0.,12.0,0.,12.0,0.,12.0,0.,12.0
1979-03-02 22:13:30.980 ,7,0,0.,12.0,0.,12.0,0.,12.0,0.,12.0
1979-03-02 22:13:42.980 ,7,0,0.,12.0,0.,12.0,0.,12.0,0.,12.0
1979-03-02 22:13:54.980 ,6,0,0.,12.0,0.,12.0,0.,12.0,0.,12.0
1979-03-02 22:14:06.980 ,6,0,21.,12.0,0.,12.0,0.,12.0,0.,12.0
1979-03-02 22:14:18.980 ,5,0,25.,12.0,0.,12.0,0.,12.0,0.,12.0
1979-03-02 22:14:30.980 ,5,0,27.,12.0,0.,12.0,0.,12.0,0.,12.0
1979-03-02 22:14:42.980 ,4,0,22.,12.0,0.,12.0,0.,12.0,0.,12.0
1979-03-02 22:14:54.980 ,4,0,11.,12.0,0.,12.0,0.,12.0,0.,12.0
1979-03-02 22:15:06.980 ,3,0,19.,12.0,0.,12.0,0.,12.0,0.,12.0
1979-03-02 22:15:18.980 ,3,0,4.,12.0,0.,12.0,0.,12.0,0.,12.0
1979-03-02 22:15:30.980 ,2,0,3.,12.0,0.,12.0,0.,12.0,0.,12.0
1979-03-02 22:15:42.980 ,2,0,0.,12.0,0.,12.0,0.,12.0,0.,12.0
1979-03-02 22:15:54.980 ,1,0,0.,12.0,0.,12.0,0.,12.0,0.,12.0
1979-03-02 22:16:06.980 ,1,0,1.,12.0,0.,12.0,0.,12.0,0.,12.0
1979-03-02 22:16:18.980 ,0,0,0.,12.0,0.,12.0,0.,12.0,0.,12.0
1979-03-02 22:16:30.980 ,0,0,7.,12.0,0.,12.0,0.,12.0,0.,12.0
1979-03-02 22:16:42.980 ,0,0,4.,12.0,0.,12.0,0.,12.0,0.,12.0
1979-03-02 22:16:54.980 ,0,0,4.,12.0,0.,12.0,0.,12.0,0.,12.0